Year,Month,Day,Hour,Minute,Value (Times are PST for windgust in km/hr)
2011,03,02,00,00,3.20
2011,03,02,00,01,4.80
2011,03,02,00,02,3.20
2011,03,02,00,03,1.60
2011,03,02,00,04,4.80
2011,03,02,00,05,3.20
2011,03,02,00,06,1.60
2011,03,02,00,07,3.20
2011,03,02,00,08,3.20
2011,03,02,00,09,3.20
2011,03,02,00,10,4.80
2011,03,02,00,11,4.80
2011,03,02,00,12,6.40
2011,03,02,00,13,6.40
2011,03,02,00,14,3.20
2011,03,02,00,15,1.60
2011,03,02,00,16,4.80
2011,03,02,00,17,4.80
2011,03,02,00,18,6.40
2011,03,02,00,19,6.40
2011,03,02,00,20,8.10
2011,03,02,00,21,4.80
2011,03,02,00,22,3.20
2011,03,02,00,23,6.40
2011,03,02,00,24,4.80
2011,03,02,00,25,3.20
2011,03,02,00,26,4.80
2011,03,02,00,27,6.40
2011,03,02,00,28,4.80
2011,03,02,00,29,4.80
2011,03,02,00,30,1.60
2011,03,02,00,31,6.40
2011,03,02,00,32,6.40
2011,03,02,00,33,8.10
2011,03,02,00,34,6.40
2011,03,02,00,35,4.80
2011,03,02,00,36,6.40
2011,03,02,00,37,4.80
2011,03,02,00,38,6.40
2011,03,02,00,39,6.40
2011,03,02,00,40,3.20
2011,03,02,00,42,1.60
2011,03,02,00,43,9.60
2011,03,02,00,44,11.30
2011,03,02,00,45,4.80
2011,03,02,00,46,4.80
2011,03,02,00,47,4.80
2011,03,02,00,48,3.20
2011,03,02,00,49,6.40
2011,03,02,00,50,6.40
2011,03,02,00,51,3.20
2011,03,02,00,52,8.10
2011,03,02,00,53,9.60
2011,03,02,00,54,3.20
2011,03,02,00,55,1.60
2011,03,02,00,56,4.80
2011,03,02,00,57,6.40
2011,03,02,00,58,3.20
2011,03,02,00,59,3.20
2011,03,02,01,00,4.80
2011,03,02,01,01,4.80
2011,03,02,01,02,8.10
2011,03,02,01,03,3.20
2011,03,02,01,04,4.80
2011,03,02,01,05,6.40
2011,03,02,01,06,4.80
2011,03,02,01,07,3.20
2011,03,02,01,08,1.60
2011,03,02,01,09,4.80
2011,03,02,01,10,3.20
2011,03,02,01,11,4.80
2011,03,02,01,12,1.60
2011,03,02,01,13,4.80
2011,03,02,01,14,4.80
2011,03,02,01,15,4.80
2011,03,02,01,16,6.40
2011,03,02,01,17,3.20
2011,03,02,01,19,4.80
2011,03,02,01,20,6.40
2011,03,02,01,22,9.60
2011,03,02,01,23,6.40
2011,03,02,01,24,1.60
2011,03,02,01,26,4.80
2011,03,02,01,27,4.80
2011,03,02,01,29,3.20
2011,03,02,01,30,3.20
2011,03,02,01,32,11.30
2011,03,02,01,33,8.10
2011,03,02,01,34,4.80
2011,03,02,01,35,3.20
2011,03,02,01,36,4.80
2011,03,02,01,37,6.40
2011,03,02,01,38,3.20
2011,03,02,01,39,4.80
2011,03,02,01,40,8.10
2011,03,02,01,41,6.40
2011,03,02,01,45,3.20
2011,03,02,01,46,3.20
2011,03,02,01,47,1.60
2011,03,02,01,48,1.60
2011,03,02,01,50,3.20
2011,03,02,01,51,1.60
2011,03,02,01,52,3.20
2011,03,02,01,54,1.60
2011,03,02,01,56,4.80
2011,03,02,01,58,3.20
2011,03,02,01,59,1.60
2011,03,02,02,00,11.30
2011,03,02,02,01,9.60
2011,03,02,02,02,4.80
2011,03,02,02,03,3.20
2011,03,02,02,04,4.80
2011,03,02,02,05,4.80
2011,03,02,02,07,3.20
2011,03,02,02,08,3.20
2011,03,02,02,09,1.60
2011,03,02,02,14,4.80
2011,03,02,02,15,3.20
2011,03,02,02,16,8.10
2011,03,02,02,17,3.20
2011,03,02,02,18,3.20
2011,03,02,02,19,3.20
2011,03,02,02,20,4.80
2011,03,02,02,21,1.60
2011,03,02,02,22,9.60
2011,03,02,02,23,9.60
2011,03,02,02,24,3.20
2011,03,02,02,25,3.20
2011,03,02,02,26,3.20
2011,03,02,02,29,1.60
2011,03,02,02,32,3.20
2011,03,02,02,33,1.60
2011,03,02,02,34,3.20
2011,03,02,02,36,8.10
2011,03,02,02,37,8.10
2011,03,02,02,38,6.40
2011,03,02,02,40,4.80
2011,03,02,02,41,4.80
2011,03,02,02,42,3.20
2011,03,02,02,43,1.60
2011,03,02,02,44,3.20
2011,03,02,02,45,3.20
2011,03,02,02,47,4.80
2011,03,02,02,53,8.10
2011,03,02,02,54,3.20
2011,03,02,02,56,1.60
2011,03,02,02,57,3.20
2011,03,02,02,58,3.20
2011,03,02,02,59,4.80
2011,03,02,03,00,1.60
2011,03,02,03,01,1.60
2011,03,02,03,02,8.10
2011,03,02,03,03,3.20
2011,03,02,03,04,4.80
2011,03,02,03,05,3.20
2011,03,02,03,06,3.20
2011,03,02,03,07,4.80
2011,03,02,03,08,4.80
2011,03,02,03,09,3.20
2011,03,02,03,10,3.20
2011,03,02,03,11,4.80
2011,03,02,03,12,4.80
2011,03,02,03,13,3.20
2011,03,02,03,14,4.80
2011,03,02,03,15,4.80
2011,03,02,03,16,8.10
2011,03,02,03,17,8.10
2011,03,02,03,18,8.10
2011,03,02,03,19,4.80
2011,03,02,03,20,9.60
2011,03,02,03,21,8.10
2011,03,02,03,22,9.60
2011,03,02,03,23,8.10
2011,03,02,03,24,1.60
2011,03,02,03,25,6.40
2011,03,02,03,26,3.20
2011,03,02,03,27,3.20
2011,03,02,03,28,9.60
2011,03,02,03,29,3.20
2011,03,02,03,30,6.40
2011,03,02,03,31,3.20
2011,03,02,03,33,4.80
2011,03,02,03,34,1.60
2011,03,02,03,36,3.20
2011,03,02,03,37,3.20
2011,03,02,03,38,3.20
2011,03,02,03,39,3.20
2011,03,02,03,42,4.80
2011,03,02,03,43,4.80
2011,03,02,03,44,4.80
2011,03,02,03,45,3.20
2011,03,02,03,46,11.30
2011,03,02,03,47,6.40
2011,03,02,03,48,3.20
2011,03,02,03,50,3.20
2011,03,02,03,51,3.20
2011,03,02,03,53,1.60
2011,03,02,03,55,1.60
2011,03,02,03,56,4.80
2011,03,02,03,57,6.40
2011,03,02,03,58,1.60
2011,03,02,03,59,1.60
2011,03,02,04,00,4.80
2011,03,02,04,01,3.20
2011,03,02,04,02,4.80
2011,03,02,04,03,1.60
2011,03,02,04,06,1.60
2011,03,02,04,07,8.10
2011,03,02,04,08,4.80
2011,03,02,04,09,6.40
2011,03,02,04,10,4.80
2011,03,02,04,11,3.20
2011,03,02,04,12,9.60
2011,03,02,04,13,11.30
2011,03,02,04,14,8.10
2011,03,02,04,15,3.20
2011,03,02,04,16,8.10
2011,03,02,04,17,4.80
2011,03,02,04,20,3.20
2011,03,02,04,21,6.40
2011,03,02,04,22,1.60
2011,03,02,04,23,6.40
2011,03,02,04,24,6.40
2011,03,02,04,25,6.40
2011,03,02,04,26,3.20
2011,03,02,04,27,1.60
2011,03,02,04,28,1.60
2011,03,02,04,29,9.60
2011,03,02,04,30,3.20
2011,03,02,04,31,9.60
2011,03,02,04,32,9.60
2011,03,02,04,33,3.20
2011,03,02,04,34,4.80
2011,03,02,04,35,4.80
2011,03,02,04,36,3.20
2011,03,02,04,37,3.20
2011,03,02,04,41,1.60
2011,03,02,04,42,4.80
2011,03,02,04,43,3.20
2011,03,02,04,45,3.20
2011,03,02,04,46,3.20
2011,03,02,04,47,4.80
2011,03,02,04,48,1.60
2011,03,02,04,49,1.60
2011,03,02,04,50,1.60
2011,03,02,04,52,4.80
2011,03,02,04,53,9.60
2011,03,02,04,54,8.10
2011,03,02,04,55,1.60
2011,03,02,04,56,4.80
2011,03,02,04,57,3.20
2011,03,02,04,58,4.80
2011,03,02,04,59,8.10
2011,03,02,05,00,8.10
2011,03,02,05,01,4.80
2011,03,02,05,02,1.60
2011,03,02,05,03,3.20
2011,03,02,05,04,8.10
2011,03,02,05,05,6.40
2011,03,02,05,06,1.60
2011,03,02,05,08,3.20
2011,03,02,05,09,4.80
2011,03,02,05,10,6.40
2011,03,02,05,11,6.40
2011,03,02,05,12,6.40
2011,03,02,05,13,8.10
2011,03,02,05,14,3.20
2011,03,02,05,15,6.40
2011,03,02,05,16,4.80
2011,03,02,05,17,3.20
2011,03,02,05,18,6.40
2011,03,02,05,19,6.40
2011,03,02,05,20,3.20
2011,03,02,05,22,4.80
2011,03,02,05,23,4.80
2011,03,02,05,24,3.20
2011,03,02,05,26,3.20
2011,03,02,05,27,4.80
2011,03,02,05,28,4.80
2011,03,02,05,29,6.40
2011,03,02,05,31,1.60
2011,03,02,05,32,9.60
2011,03,02,05,33,6.40
2011,03,02,05,34,3.20
2011,03,02,05,35,4.80
2011,03,02,05,37,1.60
2011,03,02,05,38,3.20
2011,03,02,05,39,1.60
2011,03,02,05,41,6.40
2011,03,02,05,42,8.10
2011,03,02,05,43,3.20
2011,03,02,05,44,4.80
2011,03,02,05,45,4.80
2011,03,02,05,46,3.20
2011,03,02,05,47,4.80
2011,03,02,05,49,1.60
2011,03,02,05,50,4.80
2011,03,02,05,51,3.20
2011,03,02,05,52,3.20
2011,03,02,05,53,4.80
2011,03,02,05,54,6.40
2011,03,02,05,55,3.20
2011,03,02,05,56,1.60
2011,03,02,05,58,1.60
2011,03,02,05,59,1.60
2011,03,02,06,00,4.80
2011,03,02,06,01,8.10
2011,03,02,06,02,3.20
2011,03,02,06,03,1.60
2011,03,02,06,04,1.60
2011,03,02,06,05,4.80
2011,03,02,06,06,3.20
2011,03,02,06,07,1.60
2011,03,02,06,08,3.20
2011,03,02,06,09,3.20
2011,03,02,06,10,3.20
2011,03,02,06,11,4.80
2011,03,02,06,12,4.80
2011,03,02,06,13,3.20
2011,03,02,06,14,8.10
2011,03,02,06,15,4.80
2011,03,02,06,16,4.80
2011,03,02,06,17,3.20
2011,03,02,06,18,3.20
2011,03,02,06,19,3.20
2011,03,02,06,20,4.80
2011,03,02,06,21,3.20
2011,03,02,06,22,9.60
2011,03,02,06,23,4.80
2011,03,02,06,24,3.20
2011,03,02,06,25,1.60
2011,03,02,06,26,3.20
2011,03,02,06,27,9.60
2011,03,02,06,28,4.80
2011,03,02,06,29,4.80
2011,03,02,06,30,4.80
2011,03,02,06,31,3.20
2011,03,02,06,32,4.80
2011,03,02,06,33,6.40
2011,03,02,06,34,6.40
2011,03,02,06,35,6.40
2011,03,02,06,36,4.80
2011,03,02,06,37,1.60
2011,03,02,06,38,1.60
2011,03,02,06,40,4.80
2011,03,02,06,41,4.80
2011,03,02,06,42,4.80
2011,03,02,06,43,4.80
2011,03,02,06,44,3.20
2011,03,02,06,45,8.10
2011,03,02,06,46,9.60
2011,03,02,06,47,4.80
2011,03,02,06,48,3.20
2011,03,02,06,49,3.20
2011,03,02,06,50,8.10
2011,03,02,06,51,6.40
2011,03,02,06,52,4.80
2011,03,02,06,53,8.10
2011,03,02,06,54,6.40
2011,03,02,06,55,4.80
2011,03,02,06,56,4.80
2011,03,02,06,57,3.20
2011,03,02,06,58,3.20
2011,03,02,06,59,4.80
2011,03,02,07,00,6.40
2011,03,02,07,01,3.20
2011,03,02,07,02,3.20
2011,03,02,07,03,1.60
2011,03,02,07,04,3.20
2011,03,02,07,05,6.40
2011,03,02,07,06,1.60
2011,03,02,07,08,1.60
2011,03,02,07,09,4.80
2011,03,02,07,10,6.40
2011,03,02,07,11,8.10
2011,03,02,07,12,6.40
2011,03,02,07,13,4.80
2011,03,02,07,14,3.20
2011,03,02,07,15,3.20
2011,03,02,07,16,6.40
2011,03,02,07,17,3.20
2011,03,02,07,18,14.50
2011,03,02,07,19,6.40
2011,03,02,07,20,8.10
2011,03,02,07,21,9.60
2011,03,02,07,22,17.70
2011,03,02,07,23,9.60
2011,03,02,07,24,11.30
2011,03,02,07,25,4.80
2011,03,02,07,26,1.60
2011,03,02,07,27,3.20
2011,03,02,07,28,6.40
2011,03,02,07,29,4.80
2011,03,02,07,30,9.60
2011,03,02,07,31,8.10
2011,03,02,07,32,6.40
2011,03,02,07,33,11.30
2011,03,02,07,34,6.40
2011,03,02,07,35,6.40
2011,03,02,07,36,14.50
2011,03,02,07,37,3.20
2011,03,02,07,38,4.80
2011,03,02,07,39,1.60
2011,03,02,07,40,4.80
2011,03,02,07,41,6.40
2011,03,02,07,42,6.40
2011,03,02,07,43,1.60
2011,03,02,07,44,11.30
2011,03,02,07,45,8.10
2011,03,02,07,46,9.60
2011,03,02,07,47,6.40
2011,03,02,07,48,8.10
2011,03,02,07,49,3.20
2011,03,02,07,50,3.20
2011,03,02,07,51,6.40
2011,03,02,07,52,6.40
2011,03,02,07,53,3.20
2011,03,02,07,54,6.40
2011,03,02,07,55,4.80
2011,03,02,07,56,3.20
2011,03,02,07,57,3.20
2011,03,02,07,58,9.60
2011,03,02,07,59,6.40
2011,03,02,08,00,4.80
2011,03,02,08,01,1.60
2011,03,02,08,02,1.60
2011,03,02,08,03,3.20
2011,03,02,08,04,1.60
2011,03,02,08,06,4.80
2011,03,02,08,07,8.10
2011,03,02,08,08,4.80
2011,03,02,08,10,6.40
2011,03,02,08,11,4.80
2011,03,02,08,12,3.20
2011,03,02,08,15,4.80
2011,03,02,08,16,4.80
2011,03,02,08,17,8.10
2011,03,02,08,18,4.80
2011,03,02,08,19,4.80
2011,03,02,08,20,4.80
2011,03,02,08,21,4.80
2011,03,02,08,23,1.60
2011,03,02,08,24,3.20
2011,03,02,08,25,3.20
2011,03,02,08,26,6.40
2011,03,02,08,27,4.80
2011,03,02,08,28,6.40
2011,03,02,08,29,1.60
2011,03,02,08,30,6.40
2011,03,02,08,31,6.40
2011,03,02,08,32,6.40
2011,03,02,08,33,14.50
2011,03,02,08,34,9.60
2011,03,02,08,35,9.60
2011,03,02,08,36,11.30
2011,03,02,08,37,17.70
2011,03,02,08,38,12.90
2011,03,02,08,39,9.60
2011,03,02,08,40,9.60
2011,03,02,08,41,6.40
2011,03,02,08,42,11.30
2011,03,02,08,43,33.80
2011,03,02,08,44,16.10
2011,03,02,08,45,17.70
2011,03,02,08,46,11.30
2011,03,02,08,47,8.10
2011,03,02,08,48,17.70
2011,03,02,08,49,16.10
2011,03,02,08,50,14.50
2011,03,02,08,51,8.10
2011,03,02,08,52,11.30
2011,03,02,08,53,22.50
2011,03,02,08,54,25.70
2011,03,02,08,55,16.10
2011,03,02,08,56,12.90
2011,03,02,08,57,14.50
2011,03,02,08,58,9.60
2011,03,02,08,59,6.40
2011,03,02,09,00,37.00
2011,03,02,09,01,19.30
2011,03,02,09,02,20.90
2011,03,02,09,03,22.50
2011,03,02,09,04,22.50
2011,03,02,09,05,43.50
2011,03,02,09,06,30.60
2011,03,02,09,07,17.70
2011,03,02,09,08,11.30
2011,03,02,09,09,3.20
2011,03,02,09,10,19.30
2011,03,02,09,11,40.20
2011,03,02,09,12,22.50
2011,03,02,09,13,38.60
2011,03,02,09,14,25.70
2011,03,02,09,15,41.80
2011,03,02,09,16,72.40
2011,03,02,09,17,29.00
2011,03,02,09,18,17.70
2011,03,02,09,19,25.70
2011,03,02,09,20,14.50
2011,03,02,09,21,17.70
2011,03,02,09,22,20.90
2011,03,02,09,23,19.30
2011,03,02,09,24,20.90
2011,03,02,09,25,22.50
2011,03,02,09,26,20.90
2011,03,02,09,27,12.90
2011,03,02,09,28,11.30
2011,03,02,09,29,35.40
2011,03,02,09,30,22.50
2011,03,02,09,31,43.50
2011,03,02,09,32,14.50
2011,03,02,09,33,11.30
2011,03,02,09,34,30.60
2011,03,02,09,35,30.60
2011,03,02,09,36,27.40
2011,03,02,09,37,35.40
2011,03,02,09,38,24.20
2011,03,02,09,39,20.90
2011,03,02,09,40,27.40
2011,03,02,09,41,29.00
2011,03,02,21,23,4.80
2011,03,02,21,24,3.20
2011,03,02,21,25,3.20
2011,03,02,21,28,3.20
2011,03,02,21,29,1.60
2011,03,02,21,30,4.80
2011,03,02,21,31,4.80
2011,03,02,21,32,4.80
2011,03,02,21,33,4.80
2011,03,02,21,35,1.60
2011,03,02,21,36,4.80
2011,03,02,21,37,3.20
2011,03,02,21,38,3.20
2011,03,02,21,39,4.80
2011,03,02,21,40,3.20
2011,03,02,21,41,3.20
2011,03,02,21,42,3.20
2011,03,02,21,43,1.60
2011,03,02,21,44,1.60
2011,03,02,21,46,1.60
2011,03,02,21,48,1.60
2011,03,02,21,55,3.20
2011,03,02,21,56,3.20
2011,03,02,21,57,1.60
2011,03,02,22,01,4.80
2011,03,02,22,02,4.80
2011,03,02,22,03,6.40
2011,03,02,22,04,8.10
2011,03,02,22,05,6.40
2011,03,02,22,06,4.80
2011,03,02,22,07,4.80
2011,03,02,22,08,4.80
2011,03,02,22,09,4.80
2011,03,02,22,10,3.20
2011,03,02,22,11,3.20
2011,03,02,22,12,1.60
2011,03,02,22,16,3.20
2011,03,02,22,17,3.20
2011,03,02,22,18,3.20
2011,03,02,22,19,4.80
2011,03,02,22,20,4.80
2011,03,02,22,21,3.20
2011,03,02,22,22,3.20
2011,03,02,22,23,8.10
2011,03,02,22,24,6.40
2011,03,02,22,25,1.60
2011,03,02,22,26,1.60
